カタログに戻る

TITAN 3C TRANSTAGE DEB

運用中MEO
NORAD 38702·DEBRIS·🇺🇸 United States

打ち上げ Sep 26, 1968 から Cape Canaveral Space Force Station

Loading…

次のパス (今後24時間)

TLE

最新Source: Space-Track

元期: Sep 13, 2026, 15:18 UTC

1 38702U 68081AC  26256.63809173 -.00000003  00000-0  00000-0 0  9995
2 38702   1.3131  52.2025 0222295  37.8872 324.5559  1.02228046 70627

AllMySatでTITAN 3C TRANSTAGE DEBをリアルタイム追跡

Download on the App Store